Weather History for Air Force Academy, CO

Change the Weather History Date:

Saturday, December 8, 2012

  Actual Average Record
Temperature  
Mean Temperature 35 °F -  
Max Temperature 51 °F 41 °F 57 °F (1996)
Min Temperature 19 °F 19 °F -13 °F (2005)
Degree Days  
Heating Degree Days 30    
Moisture  
Dew Point 12 °F    
Average Humidity 47    
Maximum Humidity 81    
Minimum Humidity 16    
Precipitation  
Precipitation 0.01 in - - ()
Sea Level Pressure  
Sea Level Pressure 29.75 in    
Wind  
Wind Speed 13 mph (West)    
Max Wind Speed 32 mph    
Max Gust Speed 47 mph    
Visibility 10 miles    
Events      
Averages and records for this station are not official NWS values.
T = Trace of Precipitation, MM = Missing Value Source: NWS Daily Summary

Daily Weather History Graph

Daily Weather History Graph

Search for Another Location

Airport:

Trip Planner

Search our weather history database for the weather conditions in past years. The results will help you decide how hot, cold, wet, or windy it might be!

Date:

Astronomy

Dec. 08, 2012 Rise Set
Actual Time 7:05 AM MST 4:36 PM MST
Civil Twilight 6:36 AM MST 5:06 PM MST
Nautical Twilight 6:02 AM MST 5:40 PM MST
Astronomical Twilight 5:30 AM MST 6:12 PM MST
Moon 1:35 AM MST (12/8) 1:06 PM MST (12/8)
Length of Visible Light 10h 30m
Length of Day
9h 30m
Waning Crescent, 27% of the Moon is Illuminated
Dec 8
Waning Crescent
Dec 13
New
Dec 19
First Quarter
Dec 28
Full
Jan 4
Last Quarter

Hourly Weather History & Observations

Time (MST) Temp. Windchill Dew Point Humidity Pressure Visibility Wind Dir Wind Speed Gust Speed Precip Events Conditions
12:58 AM 27.7 °F 17.1 °F 17.4 °F 65% 29.82 in 10.0 mi SE 12.7 mph - N/A   Clear
1:58 AM 26.1 °F 16.2 °F 17.2 °F 69% 29.84 in 10.0 mi ESE 10.4 mph - N/A   Clear
2:58 AM 24.8 °F 15.3 °F 16.3 °F 70% 29.82 in 10.0 mi ESE 9.2 mph - N/A   Clear
3:58 AM 24.3 °F 14.6 °F 16.5 °F 72% 29.81 in 10.0 mi ESE 9.2 mph - N/A   Clear
4:58 AM 23.4 °F 16.2 °F 16.3 °F 75% 29.84 in 10.0 mi SE 5.8 mph - N/A   Clear
5:58 AM 21.9 °F - 15.6 °F 77% 29.86 in 10.0 mi SSW 2.3 mph - N/A   Clear
6:58 AM 19.6 °F 11.7 °F 14.2 °F 80% 29.87 in 10.0 mi SSW 5.8 mph - N/A   Clear
7:58 AM 19.8 °F - 14.9 °F 81% 29.87 in 10.0 mi Calm Calm - N/A   Clear
8:58 AM 25.0 °F 19.3 °F 16.5 °F 70% 29.83 in 10.0 mi SW 4.6 mph - N/A   Clear
9:58 AM 32.4 °F 23.0 °F 18.1 °F 56% 29.77 in 10.0 mi South 12.7 mph - N/A   Clear
10:58 AM 37.9 °F 30.5 °F 18.0 °F 45% 29.71 in 10.0 mi South 11.5 mph - N/A   Clear
11:45 AM 42.8 °F 34.0 °F 15.8 °F 34% 29.63 in 10.0 mi SSW 20.7 mph 28.8 mph N/A   Clear
11:54 AM 46.4 °F 39.0 °F 12.2 °F 25% 29.63 in 10.0 mi West 19.6 mph 31.1 mph N/A   Clear
11:58 AM 46.6 °F - 8.8 °F 22% 29.60 in 10.0 mi West 20.7 mph 33.4 mph N/A   Clear
12:05 PM 50.0 °F - 8.6 °F 19% 29.62 in 10.0 mi WNW 29.9 mph 42.6 mph N/A   Clear
12:12 PM 50.0 °F - 6.8 °F 17% 29.63 in 10.0 mi WSW 18.4 mph 42.6 mph N/A   Clear
12:13 PM 51.8 °F - 8.6 °F 18% 29.63 in 10.0 mi WSW 19.6 mph 42.6 mph N/A   Clear
12:58 PM 51.4 °F - 6.4 °F 16% 29.56 in 10.0 mi West 32.2 mph 47.2 mph N/A   Clear
1:12 PM 51.8 °F - 6.8 °F 16% 29.62 in 10.0 mi WNW 28.8 mph 39.1 mph N/A   Clear
1:58 PM 51.8 °F - 6.8 °F 16% 29.59 in 10.0 mi WNW 23.0 mph 36.8 mph 0.01 in   Clear
2:54 PM 50.0 °F - 6.8 °F 17% 29.62 in 10.0 mi WSW 18.4 mph 32.2 mph N/A   Clear
2:58 PM 50.4 °F - 7.2 °F 17% 29.61 in 10.0 mi West 16.1 mph 32.2 mph N/A   Clear
3:58 PM 46.9 °F - 7.9 °F 20% 29.66 in 10.0 mi WNW 9.2 mph 26.5 mph N/A   Clear
4:58 PM 44.2 °F 37.3 °F 9.7 °F 24% 29.70 in 10.0 mi WNW 15.0 mph 20.7 mph N/A   Clear
5:58 PM 41.2 °F 34.5 °F 9.0 °F 27% 29.73 in 10.0 mi West 11.5 mph - N/A   Clear
6:58 PM 41.9 °F 36.3 °F 10.4 °F 28% 29.76 in 10.0 mi West 9.2 mph - N/A   Clear
7:58 PM 31.1 °F 20.5 °F 18.1 °F 59% 29.86 in 10.0 mi North 15.0 mph 21.9 mph N/A   Mostly Cloudy
8:58 PM 26.8 °F 12.6 °F 14.7 °F 60% 29.90 in 10.0 mi NNE 21.9 mph 24.2 mph N/A   Partly Cloudy
9:18 PM 24.8 °F 11.5 °F 12.2 °F 59% 29.81 in 10.0 mi NNE 17.3 mph - N/A   Mostly Cloudy
9:58 PM 22.5 °F 11.1 °F 13.1 °F 67% 29.90 in 10.0 mi NNE 11.5 mph - N/A   Scattered Clouds
10:58 PM 22.3 °F 11.5 °F 14.2 °F 71% 29.89 in 10.0 mi North 10.4 mph - N/A   Mostly Cloudy
11:43 PM 21.2 °F 10.9 °F 14.0 °F 74% 29.84 in 10.0 mi North 9.2 mph - N/A   Overcast
11:58 PM 21.4 °F 10.4 °F 12.6 °F 69% 29.86 in 10.0 mi North 10.4 mph - N/A   Overcast